Retour au catalogue

ONEWEB-0399

ActifCommunicationsPO
NORAD 50479·PAYLOAD·🇬🇧 United Kingdom

Lancé Dec 27, 2021 depuis Baikonur Cosmodrome

Loading…

Prochains Passages (prochaines 24 heures)

TLE

FraisSource: CelesTrak SupGP

Époque: Sep 14, 2026, 11:43 UTC

1 50479C 21132L   26257.48834905 -.00003032  00000+0 -85656-2 0  2575
2 50479  87.8961   3.3153 0002156 113.5777 357.7439 13.11415158    15

Suivez ONEWEB-0399 en temps réel avec AllMySat

Download on the App Store